Location: Newark
(31.5350°N, 35.0986°E)
Time: 08:35:29
(UTC+00:00)

Altair - All Passes

Search period start: 24 September 2019 00:00
Search period end: 04 October 2019 00:00
Orbit: 1501 x 1683 km, 47.2° (Epoch: 23 September)

Date Brightness Start Highest point End Pass type
(mag) Time Alt. Az. Time Alt. Az. Time Alt. Az.
24 Sep - 13:05:24 10° S 13:13:39 31° SE 13:22:04 10° ENE daylight
24 Sep - 15:07:47 10° SW 15:17:49 80° NW 15:28:04 10° NE daylight
24 Sep - 17:14:47 10° W 17:24:00 38° NNW 17:33:13 10° NE visible
24 Sep - 19:22:31 10° NW 19:31:31 34° N 19:40:22 10° ENE visible
24 Sep - 21:28:03 10° NW 21:38:07 65° NNE 21:47:47 10° ESE visible
24 Sep - 23:33:31 10° WNW 23:42:37 42° SW 23:51:24 10° SSE night (unlit)
25 Sep - 12:40:41 10° S 12:48:33 28° SE 12:56:35 10° ENE daylight
25 Sep - 14:42:34 10° SW 14:52:36 86° NW 15:02:51 10° NE daylight
25 Sep - 16:49:20 10° W 16:58:37 39° NNW 17:07:57 10° NE visible
25 Sep - 18:57:10 10° NW 19:06:07 33° N 19:14:56 10° ENE visible
25 Sep - 21:02:49 10° NW 21:12:51 61° NNE 21:22:31 10° ESE visible
25 Sep - 23:08:10 10° WNW 23:17:30 46° SW 23:26:30 10° SSE night (unlit)
26 Sep - 12:16:03 10° S 12:23:28 25° SE 12:31:01 10° ENE daylight
26 Sep - 14:17:24 10° SW 14:27:22 88° SE 14:37:37 10° NE daylight
26 Sep - 16:23:54 10° W 16:33:15 41° NNW 16:42:41 10° NE visible
26 Sep - 18:31:48 10° NW 18:40:42 33° N 18:49:31 10° ENE visible
26 Sep - 20:37:35 10° NW 20:47:34 57° NNE 20:57:13 10° ESE visible
26 Sep - 22:42:50 10° WNW 22:52:22 51° SW 23:01:34 10° SSE night (unlit)
27 Sep - 11:51:29 10° S 11:58:23 22° SE 12:05:24 10° E daylight
27 Sep - 13:52:15 10° SW 14:02:11 83° SE 14:12:23 10° NE daylight
27 Sep - 15:58:28 10° W 16:07:54 42° NNW 16:17:26 10° NE visible
27 Sep - 18:06:25 10° WNW 18:15:18 33° N 18:24:06 10° ENE visible
27 Sep - 20:12:21 10° NW 20:22:17 54° NNE 20:31:54 10° ESE visible
27 Sep - 22:17:31 10° WNW 22:27:14 56° SW 22:36:37 10° SSE visible
28 Sep - 00:29:11 10° WSW 00:30:31 10° WSW 00:31:51 10° SW night (unlit)
28 Sep - 11:27:02 10° SSE 11:33:19 19° ESE 11:39:41 10° E daylight
28 Sep - 13:27:07 10° SW 13:36:59 77° SE 13:47:08 10° NE daylight
28 Sep - 15:33:04 10° W 15:42:33 44° NNW 15:52:10 10° NE visible
28 Sep - 17:41:02 10° WNW 17:49:53 32° N 17:58:41 10° ENE visible
28 Sep - 19:47:08 10° NW 19:56:59 51° NNE 20:06:33 10° ESE visible
28 Sep - 21:52:14 10° WNW 22:02:06 61° SW 22:11:37 10° SSE visible
29 Sep - 00:01:51 10° W 00:05:28 12° WSW 00:09:03 10° SW night (unlit)
29 Sep - 11:02:44 10° SSE 11:08:15 17° ESE 11:13:51 10° E daylight
29 Sep - 13:02:02 10° SW 13:11:48 71° SE 13:21:53 10° NE daylight
29 Sep - 15:07:40 10° W 15:17:12 47° NNW 15:26:55 10° NE daylight
29 Sep - 17:15:38 10° WNW 17:24:28 32° N 17:33:17 10° ENE visible
29 Sep - 19:21:54 10° NW 19:31:40 48° NNE 19:41:12 10° E visible
29 Sep - 21:26:57 10° NW 21:36:57 67° SW 21:46:35 10° SE visible
29 Sep - 23:35:32 10° W 23:40:25 15° WSW 23:45:13 10° SSW night (unlit)
30 Sep - 10:38:37 10° SSE 10:43:11 14° ESE 10:47:48 10° E daylight
30 Sep - 12:36:59 10° SW 12:46:38 65° SE 12:56:37 10° NE daylight
30 Sep - 14:42:17 10° W 14:51:53 49° NNW 15:01:41 10° NE daylight
30 Sep - 16:50:13 10° WNW 16:59:03 32° N 17:07:53 10° ENE visible
30 Sep - 18:56:39 10° NW 19:06:20 46° NNE 19:15:49 10° E visible
30 Sep - 21:01:42 10° NW 21:11:46 73° SW 21:21:31 10° SE visible
30 Sep - 23:09:34 10° W 23:15:21 17° WSW 23:21:04 10° SSW night (unlit)
01 Oct - 10:14:55 10° SE 10:18:07 12° ESE 10:21:21 10° E daylight
01 Oct - 12:11:57 10° SSW 12:21:29 60° SE 12:31:19 10° ENE daylight
01 Oct - 14:16:56 10° WSW 14:26:34 52° NNW 14:36:27 10° NE daylight
01 Oct - 16:24:49 10° WNW 16:33:38 32° N 16:42:29 10° ENE visible
01 Oct - 18:31:24 10° NW 18:41:00 44° NNE 18:50:25 10° E visible
01 Oct - 20:36:27 10° NW 20:46:36 79° SW 20:56:25 10° SE visible
01 Oct - 22:43:45 10° W 22:50:17 20° WSW 22:56:42 10° SSW night (unlit)
02 Oct - 11:46:57 10° SSW 11:56:20 55° SE 12:06:02 10° ENE daylight
02 Oct - 13:51:36 10° WSW 14:01:16 55° NNW 14:11:13 10° NE daylight
02 Oct - 15:59:24 10° WNW 16:08:13 33° N 16:17:06 10° NE visible
02 Oct - 18:06:08 10° NW 18:15:39 42° NNE 18:25:01 10° E visible
02 Oct - 20:11:12 10° NW 20:21:24 84° SW 20:31:18 10° SE visible
02 Oct - 22:18:04 10° WNW 22:25:13 23° SW 22:32:13 10° S night (unlit)
03 Oct - 11:22:00 10° SSW 11:31:12 50° SE 11:40:43 10° ENE daylight
03 Oct - 13:26:17 10° WSW 13:35:59 59° NNW 13:46:00 10° NE daylight
03 Oct - 15:33:58 10° WNW 15:42:49 33° N 15:51:44 10° NE visible
03 Oct - 17:40:52 10° NW 17:50:17 40° NNE 17:59:35 10° E visible
03 Oct - 19:45:58 10° NW 19:56:12 90° NE 20:06:09 10° SE visible
03 Oct - 21:52:28 10° WNW 22:00:08 25° SW 22:07:38 10° S night (unlit)
